Ishurdi, Bangladesh
Current Conditions -  °F | °C
As of 5:50 AM on Saturday 25 Oct 2014 (Local Time) from VGHS Reporting Station
Haze Haze  
Wind Chill: 77°   Ceiling: 10000
Heat Index: 79°   Visibility: 2.1mi
Dew Point: 70°   Wind: 0mph
Humidity: 78%   Direction: NA
Pressure: 29.83"   Gusts: NA
Location:  24.14°N, 89.07°E
Report Text: VGHS 242350Z 00000KT 3500 HZ SCT015 BKN100 25/21 Q1010 NOSIG
Loading
Personal Weather Stations






























Interactive Weather Map
Tropical Storm Tracking
New forecast layout! Learn more

10-Day Weather Forecast

Advertisements
Track Severe Weather on mobile